STARLINK-35397

Satellite information

Favourite Embed

Satellite Type and Status

PAYLOADIN ORBIT

Key statistics

Satellite STARLINK-35397 at a glance.

Uptime

25

Days in orbit

Revolutions

≈ 15.5

Per day

Orbit

LEO

Low Earth Orbit

Inclination

53.2

Latest

Satellite identification and parameters

Extended collection of information and parameters for STARLINK-35397.

Object identification

Identified? True

Debris? False

Object name: STARLINK-35397

International designator: 2025-221C

Object number (NORAD): 65825

Object ID (CCSDS): 65825

Country: UNITED STATES OF AMERICA (US)

Current information (Y/N): Y

Orbital parameters

Period: 92.943 minutes

Inclination: 53.1599 deg

SMA: 6796.81 km

Apoapsis: 419.458 km

Periapsis: 417.892 km

RAAN: 6.2313 deg

Eccentricy: 0.00011521

Argument of periapsis: 95.9444 deg

Mean anomaly: 264.1697 deg

Mean motion: 15.4933421 rev/day

Mean motion (dot): 0.00066855 rev/day2

B* drag term: 0.0011987739 1/REarth

Two-line elements (TLE)

Creation date: Oct. 24, 2025, 2:48 a.m.

Reference frame: TEME

Reference center: EARTH

Epoch: Oct. 23, 2025, 6:29 p.m. UTC

TLE line 0: 0 STARLINK-35397

TLE line 1: 1 65825U 25221C 25296.77074542 .00066855 00000-0 11988-2 0 9997

TLE line 2: 2 65825 53.1599 6.2313 0001152 95.9444 264.1697 15.49334210 5090

Live tracking on map

Real-time ground track for satellite STARLINK-35397.

In-orbit conjunctions

There are no conjunctions computed for STARLINK-35397, at the moment. Check back to stay up to date, as we update our databases every day.

Go to all conjunctions

Associated space launch

A batch of 28 satellites for the Starlink mega-constellation - SpaceX's project for space-based Internet communication system.

STARLINK-35397 was lifted into orbit during the mission ‘Falcon 9 Block 5 | Starlink Group 11-20’, on board a Falcon 9 space rocket.

The launch took place on Sept. 29, 2025, 2:04 a.m. from Space Launch Complex 4E.

For more information about the launch, click the button.

Launch to space Falcon 9 Block 5 | Starlink Group 11-20
Falcon 9 Block 5 | Starlink Group 11-20

Agency: SpaceX

Status: Launch Successful

Launch date: Sept. 29, 2025, 2:04 a.m. UTC

Rocket: Falcon 9

Launch pad: Space Launch Complex 4E

Location: Vandenberg SFB, CA, USA

...

Latest news about this satellite

News about space launch
Live coverage: SpaceX to launch 28 Starlink satellites on Falcon 9 rocket from Vandenberg SFB

The Starlink 11-20 mission will see SpaceX’s Falcon 9 rocket fly on a south-easterly trajectory upon departure from Vandenberg Space Force Base. Liftoff from pad 4E is scheduled for 4:32 p.m. PDT (7:32 p.m. EDT / 2332 UTC).

News about space launch
Live coverage: SpaceX to launch 24 Starlink satellites on Falcon 9 rocket from Vandenberg SFB

The Starlink 11-20 mission will see SpaceX’s Falcon 9 rocket fly on a south-easterly trajectory upon departure from Vandenberg Space Force Base. Liftoff from pad 4E is scheduled for 4:32 p.m. PDT (7:32 p.m. EDT / 2332 UTC).

News about space launch
Launch Roundup: Kuiper, Starlink, IMAP headline launch manifest

A busy slate of launches is planned for the last full week of September, including… The post Launch Roundup: Kuiper, Starlink, IMAP headline launch manifest appeared first on NASASpaceFlight.com.


Newsletter sign-up

Weekly statistics, charts and insights to help you stay on top of the space industry.